Theta_e
311 306 303 306 309 308 308 307 306 308 313 310 309 308 318 321 321 322 325 329 331 332 335 337 338 338 337 339 342 345 348 355 353 350 348 348 345 347 344 342 340 341 340 340
308 304 309 311 310 308 307 306 306 310 312 310 309 309 312 321 320 319 323 327 330 331 331 333 333 334 334 336 339 341 342 346 346 344 349 348 347 342 341 341 338 338 337 338
305 309 312 309 308 306 306 305 306 306 311 312 309 307 311 317 320 320 323 328 331 330 329 330 329 330 330 332 334 336 338 340 342 347 347 348 347 337 332 334 331 333 333 331
308 311 309 307 306 307 303 308 307 308 307 302 310 299 310 313 315 319 320 325 328 330 330 329 328 327 328 328 331 334 336 338 335 341 338 339 328 325 331 328 334 333 332 329
307 308 307 306 306 308 305 311 308 308 306 305 305 304 307 313 313 317 321 324 327 329 328 326 326 325 324 327 327 330 332 332 334 335 336 330 331 330 330 331 335 336 332 328
309 314 311 309 311 311 312 309 308 308 305 297 303 302 302 307 314 317 321 323 326 327 327 327 327 325 324 324 325 329 330 332 334 333 333 333 332 329 329 330 327 329 328 327
307 309 312 312 308 311 309 305 297 296 297 296 306 302 305 312 315 315 318 323 327 328 325 325 324 322 323 323 324 326 329 329 331 331 331 331 333 333 331 331 327 329 327 327
302 300 308 311 309 306 306 305 298 293 295 298 306 300 305 316 318 317 318 320 327 327 325 323 324 323 322 323 325 326 328 328 329 330 330 333 335 331 327 330 330 327 326 329
303 303 311 312 312 310 306 304 309 302 303 298 302 307 314 316 316 316 316 318 319 327 326 324 324 324 324 325 327 328 328 329 329 330 331 332 332 331 329 333 333 329 331 326
308 302 310 310 312 311 308 310 302 303 295 293 298 301 303 310 312 316 316 317 321 324 323 323 323 325 326 325 326 328 329 329 330 330 330 329 331 332 332 333 332 332 333 332
310 308 307 310 307 305 306 303 304 305 303 296 295 300 314 311 313 314 318 320 320 320 321 322 322 325 324 325 324 325 326 328 329 330 331 332 331 331 331 332 332 331 332 330
312 309 302 305 311 313 309 307 309 300 300 303 302 300 316 315 314 317 318 319 324 323 322 322 324 325 324 325 326 324 326 325 327 329 330 330 331 332 333 330 327 328 327 328
313 309 299 301 307 311 307 308 308 311 311 303 298 301 314 315 314 315 316 318 321 324 324 324 325 322 323 326 324 324 324 324 325 324 325 328 330 329 328 327 327 326 323 323
319 311 306 298 303 307 305 307 309 309 303 301 301 303 310 313 314 315 317 317 318 323 323 322 323 324 321 321 323 325 323 322 320 322 322 321 321 321 319 318 318 319 320 318
314 307 307 307 307 306 305 305 308 306 306 302 304 304 309 313 314 315 318 319 317 318 321 322 324 322 325 323 326 325 322 323 322 320 317 316 317 319 317 319 320 319 320 318
319 305 307 304 306 306 304 306 306 306 306 305 305 305 313 315 314 314 315 317 316 317 319 323 325 326 326 326 325 323 323 324 323 321 319 319 320 320 319 320 318 318 317 316
314 309 306 300 305 304 300 304 306 307 308 306 303 308 314 312 312 313 314 316 316 320 321 321 322 323 324 324 326 325 323 323 321 319 317 316 317 316 315 316 313 314 315 315
316 312 309 303 304 294 305 311 310 307 308 310 309 309 311 312 315 314 316 316 319 319 319 320 320 322 323 323 322 322 320 319 317 316 314 314 312 313 313 310 310 311 310 310
315 314 304 300 299 302 304 307 307 305 306 310 308 309 310 313 313 314 318 321 320 321 323 318 319 321 321 320 320 318 317 315 314 312 310 312 311 310 310 309 310 311 311 310
312 316 307 303 296 293 306 309 312 312 301 312 312 312 312 312 305 310 319 320 321 322 323 321 320 320 320 319 319 317 314 313 311 310 310 310 310 310 309 310 310 311 310 309
304 305 303 301 298 302 310 312 313 299 304 314 313 314 314 311 315 319 321 321 322 321 321 322 319 316 319 318 316 313 313 311 311 311 310 309 309 310 311 311 311 311 310 309
301 301 300 300 299 296 314 311 305 314 318 315 314 315 315 319 319 319 320 320 320 319 318 318 318 316 316 316 315 314 312 312 311 310 309 308 308 308 307 310 310 311 310 304
301 307 304 305 302 311 316 315 321 325 318 316 315 316 319 319 317 318 319 318 318 318 317 317 315 313 314 314 314 312 312 311 309 309 309 308 309 307 308 308 308 304 304 300
309 314 308 308 311 309 309 319 320 321 318 318 318 317 320 318 319 319 317 315 315 315 314 314 312 311 310 311 311 310 310 310 308 308 307 308 306 307 309 306 306 305 302 300
309 312 309 309 309 313 312 314 317 317 318 317 319 318 318 319 314 318 316 314 312 313 313 313 311 309 309 309 309 309 310 308 308 309 306 307 307 307 308 308 307 305 306 301
308 309 307 305 313 309 311 311 310 316 318 318 318 317 317 317 317 314 315 313 313 312 313 312 311 310 309 308 308 308 309 309 307 307 305 304 305 305 305 306 306 296 298 296
Wind_Speed
14 12 14 16 16 19 19 12 12 10 11 5 10 10 17 14 12 13 12 12 12 12 10 8 8 9 10 8 7 7 6 4 4 4 4 3 4 5 5 6 8 7 7 9
13 13 16 15 16 15 16 12 10 3 9 1 7 14 17 17 12 12 15 14 13 15 11 9 9 9 9 8 7 7 6 7 6 5 3 3 3 3 5 6 8 7 8 8
15 18 17 17 10 8 9 12 12 16 3 0 11 16 12 13 12 13 13 15 16 17 14 11 10 9 10 8 8 8 7 6 6 4 3 2 1 5 5 5 6 6 8 9
10 18 5 4 11 12 12 15 17 5 3 9 17 11 15 20 16 14 15 14 15 16 15 12 12 10 9 9 9 8 7 6 7 6 5 6 6 6 3 5 2 5 7 7
11 12 4 12 14 14 14 15 14 5 10 12 14 10 14 18 17 17 15 13 14 16 16 14 12 11 11 11 10 8 8 8 8 8 8 5 6 4 4 4 1 6 7 9
18 3 6 13 10 2 9 3 5 6 10 12 17 16 12 8 16 14 17 17 15 16 15 14 13 12 10 12 11 9 8 7 7 7 7 7 6 6 4 3 4 3 4 5
13 8 11 2 3 5 4 7 7 11 11 14 17 18 13 13 11 9 5 17 16 16 15 14 14 12 11 12 11 10 8 8 7 7 6 6 5 6 4 4 3 5 3 4
12 14 17 10 13 9 16 12 10 13 11 10 4 7 7 14 12 8 9 6 12 18 16 15 15 13 12 12 11 10 10 9 8 7 6 4 5 3 5 4 3 3 4 3
12 11 16 16 11 12 10 10 10 10 12 13 13 6 11 11 11 7 5 3 6 14 13 15 15 13 13 11 9 10 10 8 7 7 5 4 3 5 5 3 3 4 5 5
11 11 9 8 3 7 9 11 8 5 11 15 13 16 8 10 9 9 3 3 4 7 11 14 14 14 11 12 9 8 9 8 7 8 6 6 4 4 4 2 2 1 2 2
9 5 13 11 9 12 11 11 12 12 9 10 10 3 7 8 5 3 5 5 7 8 9 12 13 14 13 14 14 11 9 9 7 6 5 4 3 4 3 1 2 3 4 5
13 4 12 18 7 13 15 14 8 9 13 11 11 11 9 4 1 7 6 6 10 11 12 12 14 16 15 16 15 15 11 10 10 7 5 5 4 1 1 5 7 7 7 7
6 7 11 16 15 8 12 15 12 11 8 12 12 10 14 4 2 3 6 8 9 13 12 9 10 11 12 12 9 14 10 9 7 9 9 7 4 5 6 4 6 7 9 8
6 6 11 13 15 13 12 15 17 14 11 13 16 18 14 7 10 8 6 5 10 9 9 5 8 7 9 16 13 11 12 14 14 14 12 11 10 10 8 7 7 6 5 7
2 11 16 19 20 23 24 19 15 17 17 16 14 18 15 15 6 7 8 10 10 7 9 9 6 9 6 10 8 10 11 12 11 11 10 7 7 6 5 5 3 4 5 5
8 8 13 21 23 26 28 23 23 17 19 20 18 17 13 12 12 12 5 11 7 5 4 13 14 13 11 11 11 12 12 11 11 10 10 8 5 5 3 3 5 6 7 8
11 11 11 17 18 22 27 21 22 19 21 19 20 17 13 12 2 1 2 1 3 13 12 13 11 10 9 10 10 12 10 10 9 10 8 5 5 2 5 5 7 5 4 5
10 14 11 12 15 27 14 18 20 15 14 14 14 15 17 15 6 6 2 4 14 15 12 12 10 9 7 9 9 6 11 8 7 8 5 5 6 3 6 8 6 7 7 7
15 12 10 13 14 21 20 15 8 14 17 14 16 15 15 5 8 7 10 14 15 14 11 9 9 10 8 7 6 6 8 6 7 6 8 3 6 10 7 6 7 6 6 6
17 13 12 11 14 25 13 18 16 7 14 13 15 11 13 4 6 7 14 17 16 14 11 11 11 10 7 7 4 5 5 8 8 5 6 11 8 7 9 7 6 6 7 7
15 16 16 12 15 22 16 17 3 13 9 4 4 10 9 4 3 16 17 16 14 12 12 11 11 9 8 7 3 5 5 6 5 9 8 8 7 5 4 5 5 5 5 5
11 9 7 6 14 23 8 15 20 2 4 2 3 7 5 16 16 17 16 14 13 12 12 10 10 9 8 5 3 6 8 5 6 6 6 5 2 3 4 4 5 4 4 7
14 11 13 13 11 9 15 21 11 9 8 6 5 7 12 16 17 17 16 14 12 12 8 9 10 9 8 5 7 7 4 3 6 6 3 2 3 4 3 2 4 6 8 7
16 6 8 10 11 8 18 17 12 10 9 6 8 9 15 15 17 17 14 11 10 9 9 8 9 10 9 5 7 6 3 3 2 3 4 2 5 1 2 4 4 3 4 4
12 14 11 11 8 9 16 22 8 8 10 12 11 11 14 16 13 16 15 13 12 9 8 8 8 9 7 6 7 5 5 3 4 3 0 4 5 2 3 1 2 3 2 2
13 12 5 4 9 5 12 12 21 28 15 12 10 11 12 15 17 15 13 11 13 9 8 7 6 6 6 5 5 4 5 6 2 3 3 3 3 2 0 3 1 3 3 6
Wind_Direction
205 227 225 230 231 249 272 297 222 256 81 162 204 243 173 180 186 183 187 169 170 146 130 139 124 119 111 100 83 82 78 70 65 60 77 54 117 129 121 95 56 27 30 17
240 223 248 236 253 236 270 274 287 167 109 156 281 258 256 171 194 223 183 178 177 133 150 152 145 133 120 112 102 89 67 33 57 88 50 49 15 53 85 93 86 40 33 24
237 245 201 246 238 259 261 257 259 266 124 324 266 259 246 207 186 215 201 185 177 154 167 164 156 145 137 125 115 100 89 67 46 77 120 157 136 62 40 68 45 59 44 17
229 254 168 247 250 242 248 230 253 306 183 256 209 247 227 219 191 204 216 189 173 158 159 163 160 153 141 134 118 105 91 104 55 47 71 60 75 77 10 68 86 107 78 43
234 235 178 239 234 228 250 332 213 242 253 267 267 234 273 173 187 208 197 193 173 161 155 166 168 157 150 140 128 114 101 84 68 48 29 63 44 95 71 39 29 104 99 69
268 232 197 240 212 221 57 291 287 259 272 256 251 262 275 249 176 203 193 194 181 168 159 163 165 156 156 142 134 125 116 107 97 89 77 78 79 65 61 64 25 43 76 78
231 201 256 29 261 180 283 257 241 232 231 242 245 228 237 131 110 60 177 179 166 162 164 164 157 164 173 150 145 137 139 133 127 116 112 108 121 129 74 22 55 23 72 71
225 210 194 176 245 217 209 235 256 270 283 313 76 288 288 119 126 118 116 118 171 164 166 168 165 176 179 160 155 149 155 148 141 132 129 159 173 136 119 65 28 75 18 52
291 289 183 176 207 253 274 251 258 280 301 286 282 212 126 114 96 82 109 159 204 154 160 165 166 183 179 157 158 158 158 150 152 144 140 143 108 55 95 86 331 37 50 334
255 292 169 172 242 255 256 287 292 204 254 267 270 263 102 156 150 127 130 173 173 158 170 171 174 180 165 165 166 176 150 163 159 159 164 158 152 157 133 72 35 338 314 339
249 250 278 153 193 246 220 230 247 276 291 303 298 276 140 108 104 118 133 175 161 176 195 180 179 158 181 176 175 181 175 168 168 176 164 124 181 152 124 70 295 304 332 354
198 249 254 271 254 230 234 259 236 223 240 247 260 267 63 95 310 156 173 183 177 178 194 192 175 167 190 193 182 168 178 183 172 174 172 161 167 167 106 35 28 6 350 333
215 214 248 256 267 210 240 242 250 267 289 275 278 280 305 145 252 234 206 208 201 175 190 195 189 180 186 193 165 157 164 181 188 167 171 167 171 73 71 49 36 17 14 357
6 258 251 248 255 274 206 252 249 255 246 254 250 264 269 215 199 212 223 215 260 166 115 145 156 119 74 51 16 46 54 79 85 77 63 65 61 58 54 47 32 359 352 337
223 255 256 257 261 275 280 267 223 247 247 250 258 270 287 302 304 185 220 205 218 178 176 192 200 75 116 115 139 104 103 93 88 82 78 69 79 76 62 27 356 332 314 328
194 246 257 262 262 265 268 264 268 255 267 274 261 265 282 273 246 264 158 166 178 223 88 76 74 98 119 112 109 110 111 114 117 118 105 100 93 64 48 7 338 335 360 351
204 209 229 258 268 270 258 264 267 271 249 262 276 290 298 287 259 299 241 321 116 100 96 92 92 84 85 80 80 93 87 87 83 97 96 93 69 35 3 352 33 15 358 340
221 216 232 253 266 256 276 266 275 300 303 299 301 308 303 279 127 119 113 184 114 113 116 116 107 92 95 93 97 108 101 103 118 113 95 40 49 39 36 51 29 13 18 8
243 241 220 238 243 260 261 266 264 267 273 277 276 280 278 57 98 105 120 115 117 117 123 104 109 100 101 105 103 102 90 77 91 72 64 49 38 49 33 27 30 5 345 332
254 245 233 231 235 249 265 264 277 307 266 246 260 257 273 218 204 150 120 118 122 118 110 116 115 105 91 85 81 133 123 94 94 86 47 66 53 28 42 26 360 336 332 342
222 235 221 229 247 260 264 269 169 248 286 345 305 306 243 204 78 122 113 114 118 121 125 122 116 113 113 102 110 122 101 89 67 78 76 61 50 4 40 1 335 349 350 338
223 258 262 316 265 252 282 258 247 232 104 39 300 300 160 112 117 122 123 124 125 132 130 136 116 117 107 126 150 94 81 54 69 78 69 75 36 1 20 5 333 326 358 18
260 174 218 204 197 253 320 315 317 174 157 202 213 243 136 134 138 137 135 131 134 138 145 123 118 133 138 112 58 105 114 58 63 83 80 72 66 36 28 34 346 24 35 11
270 222 208 202 218 263 275 256 237 179 213 205 189 211 150 151 154 142 134 135 130 120 135 141 155 141 120 130 98 86 83 77 41 101 117 269 108 71 45 354 355 63 39 15
290 301 301 253 289 247 244 290 236 217 204 203 183 186 173 160 128 140 134 127 132 144 145 166 135 130 149 157 144 170 124 121 73 78 232 251 129 174 323 92 2 11 68 31
270 277 316 322 321 160 266 313 349 308 169 200 147 178 131 117 139 138 137 129 138 148 144 129 123 137 140 134 102 84 84 96 243 178 265 59 61 332 203 297 122 57 130 182